TIME,DELAY(SENSOR),PRES,T(CTD),SAL,OXYGEN,RAWTEMP,T(OPTODE),TCPHASE,FLUOR,BETA(BETA700),BETA(BETA412),BETA(BETA440),CDOM,C(CSC),ED(ED412.40),ED(ED444.00),ED(ED489.70),ED(ED554.30),LU(LU411.80),LU(LU443.40),LU(LU489.60),LU(LU554.10),COMP,TILTX,TILTX(TILTY),CHECK
1368654368,5805,497.6400146484375000,6.6465997695922850,34.1110992431640600,81.7598114013671900,598.4837036132812000,6.6332378387451170,48.6820106506347660,52,103,86,80,77,14925,2147750098,2147426093,2148005440,2147874075,2147630528,2147071771,2148244580,2147198107,1000,4,13,51109
1368654519,5809,487.1600036621094000,6.8236999511718750,34.1106986999511700,88.6088867187500000,593.2258911132812000,6.8028769493103030,47.8219490051269500,52,103,91,80,77,14920,2147743945,2147425654,2148004781,2147873782,2147629284,2147074368,2148239643,2147199570,3196,4,13,23312
1368654668,5808,474.9599914550781000,7.1283998489379880,34.0956001281738300,97.7833862304687500,583.7235717773438000,7.1088089942932130,46.6763496398925800,51,103,85,79,77,14921,2147745572,2147424932,2148004644,2147873462,2147629376,2147082066,2148240786,2147195693,2717,4,13,14311
1368654771,5808,464.3399963378906000,7.3758997917175290,34.0999984741210940,104.9339981079101600,575.7863159179688000,7.3637218475341800,45.7998313903808600,52,102,86,79,77,14923,2147747666,2147424786,2148003949,2147872923,2147628114,2147081389,2148237339,2147197760,3052,4,13,60468
1368654886,5807,452.1600036621094000,7.6350998878479000,34.0928993225097660,115.4759979248046900,567.1710815429688000,7.6397709846496580,44.6043891906738300,50,105,91,80,76,14921,2147744219,2147427446,2148002742,2147871396,2147627346,2147081536,2148236013,2147201654,3542,4,13,15757
1368654992,5809,441.0899963378906000,7.7785000801086430,34.0885009765625000,122.4753036499023400,563.5001220703125000,7.7572040557861330,43.8740005493164060,51,104,84,80,76,14923,2147743195,2147423168,2148001709,2147870208,2147622052,2147087314,2148231268,2147199396,3218,4,13,40101
1368655107,5806,429.5799865722656000,7.9793000221252440,34.0824012756347660,129.2483062744140600,557.2944946289062000,7.9554500579833980,43.1453285217285160,50,104,85,80,75,14923,2147748589,2147426752,2148004992,2147871853,2147624768,2147083392,2148231524,2147201728,2690,3,13,24729
1368655210,5810,419.5499877929687500,8.0733003616333000,34.0831985473632800,135.1042022705078000,552.1168823242188000,8.1206054687500000,42.5349617004394500,50,104,85,80,75,14923,2147745581,2147421888,2148001033,2147872566,2147623561,2147083785,2148233088,2147199113,1865,4,13,37505
1368655340,5807,409.0499877929687500,8.2760000228881840,34.0835990905761700,144.8059997558593800,547.8502197265625000,8.2565393447875980,41.6294288635253900,50,106,88,80,73,14922,2147740955,2147424320,2148003565,2147871149,2147625170,2147085046,2148228022,2147197888,1239,3,13,1727
1368655515,5808,398.2699890136719000,8.3465003967285160,34.0829010009765600,149.3690948486328000,545.4525756835938000,8.3328590393066400,41.2135505676269500,50,104,88,79,74,14923,2147740992,2147424128,2148004571,2147872146,2147623085,2147086427,2148231396,2147203108,3242,4,13,52521
1368655671,5806,386.8900146484375000,8.7700996398925780,34.0848999023437500,161.0883941650390600,531.6237182617188000,8.7721538543701170,40.0482788085937500,50,103,87,79,73,14924,2147743899,2147421650,2148002578,2147871789,2147623076,2147089792,2148231926,2147201563,2039,4,13,46630
1368655822,5809,375.6000061035156000,9.1344003677368160,34.0931015014648440,172.5877075195312500,520.0725708007812000,9.1379489898681640,38.9961891174316400,50,102,88,78,72,14922,2147739757,2147425700,2148003995,2147872219,2147622089,2147089234,2148229357,2147200758,126,4,13,24033
1368655958,5807,364.3599853515625000,9.5281000137329100,34.1068000793457000,182.5164031982422000,507.6677856445312500,9.5296716690063480,38.0891304016113300,50,104,86,79,71,14922,2147742829,2147421714,2148004736,2147872457,2147616237,2147098441,2148230381,2147201920,1992,4,13,51
1368656073,5806,353.5700073242187500,9.7047004699707030,34.1147003173828100,190.5010070800781200,501.8281860351562500,9.7136917114257810,37.4579086303710940,49,103,85,80,70,14921,2147736822,2147425819,2148002669,2147868937,2147615314,2147101805,2148221348,2147197878,1379,4,13,19516
1368656190,5808,342.5199890136719000,9.9443998336792000,34.1203994750976560,194.9051971435547000,494.4230957031250000,9.9467010498046880,37.0489807128906250,49,103,87,80,70,14922,2147736658,2147425691,2148002240,2147874139,2147612352,2147103012,2148220434,2147201929,413,3,14,4003
1368656305,5809,331.5100097656250000,10.2047996520996100,34.1285018920898440,198.0774993896484400,486.3194885253906000,10.2012596130371100,36.7122001647949200,49,103,85,80,71,14921,2147736960,2147427730,2148013906,2147874459,2147611840,2147100516,2148225901,2147201691,3490,4,13,47428
1368656420,5810,320.1000061035156000,10.5797996520996100,34.1371994018554700,202.2743988037109400,473.5228881835937500,10.6023702621459960,36.2400398254394500,49,104,88,79,71,14920,2147735917,2147433910,2148027620,2147873618,2147606326,2147102656,2148229184,2147199734,3487,4,13,52717
1368656537,5811,308.7900085449219000,10.9357995986938480,34.1567001342773440,206.1316986083984400,463.3770141601562500,10.9196500778198240,35.8409004211425800,49,105,85,80,69,14923,2147735744,2147438125,2148045321,2147870107,2147610578,2147114779,2148237312,2147204022,2432,4,13,62624
1368656652,5810,297.8500061035156000,11.2474002838134770,34.1641006469726560,208.4465026855468800,452.1170959472656000,11.2710599899292000,35.5202217102050800,49,103,87,81,70,14920,2147733330,2147441819,2148052416,2147872164,2147610395,2147120000,2148242212,2147205796,3161,3,14,31641
1368656767,5807,287.5799865722656000,11.8509998321533200,34.2061996459960940,211.9136962890625000,433.8866882324219000,11.8384704589843750,35.0247116088867200,48,103,87,79,68,14922,2147730916,2147446162,2148065161,2147871689,2147605897,2147124626,2148237622,2147204077,3545,3,14,25561
1368656897,5808,276.9299926757812500,12.0770998001098630,34.2207984924316400,214.1773986816406200,426.2262878417969000,12.0763702392578120,34.7742614746093750,48,103,85,79,69,14921,2147727433,2147441700,2148044653,2147872448,2147603520,2147125485,2148228269,2147206637,2819,3,14,7103
1368657048,5807,265.8599853515625000,12.5464000701904300,34.2366981506347660,213.4481048583984400,411.0971069335937500,12.5453500747680660,34.5772209167480500,49,104,86,80,68,14919,2147730377,2147466907,2148100973,2147872530,2147598034,2147138496,2148254902,2147204406,2432,3,15,65336
1368657196,5809,254.4100036621093800,13.0291004180908200,34.2664985656738300,214.0827941894531200,395.7377014160156000,13.0203695297241210,34.3023490905761700,48,102,88,80,67,14917,2147735460,2147523474,2148228662,2147869293,2147602240,2147177764,2148319780,2147212653,1462,3,15,15937
1368657311,5811,243.7700042724609400,13.6812000274658200,34.3117980957031250,213.2702941894531200,374.1348876953125000,13.6867904663085940,34.0163612365722660,49,103,87,79,68,14916,2147742564,2147575872,2148325348,2147869952,2147601517,2147208822,2148364781,2147218358,625,4,13,48371
1368657440,5809,232.2200012207031200,14.5481996536254880,34.3799018859863300,214.7754974365234400,345.9195861816406000,14.5546398162841800,33.5068893432617200,48,103,89,80,66,14911,2147729051,2147485330,2148107666,2147870838,2147596306,2147166116,2148251940,2147211053,790,4,14,22820
1368657567,5807,221.7899932861328000,15.5427999496459960,34.4897003173828100,213.6315002441406200,310.8724975585937500,15.6293601989746100,33.0538711547851560,49,104,85,80,66,14911,2147744192,2147564397,2148248155,2147873298,2147596443,2147210596,2148320393,2147218422,3058,3,14,21511
1368657718,5809,210.5899963378906200,16.7765007019042970,34.6318016052246100,213.4165039062500000,276.3229980468750000,16.6862907409667970,32.5673789978027340,49,110,86,80,66,14905,2147800146,2147797120,2148662948,2147871305,2147613705,2147360923,2148521636,2147236690,2208,3,13,12008
1368657853,5808,199.0200042724609400,17.6734008789062500,34.7522010803222660,214.5457000732422000,244.0522003173828000,17.6721992492675780,32.0505790710449200,50,107,87,81,64,14899,2147769325,2147618669,2148293110,2147870317,2147597394,2147268470,2148334409,2147219483,74,3,14,60141
1368657908,5809,193.5800018310547000,18.0923004150390620,34.8128013610839840,216.0254974365234400,230.6842956542968800,18.0804405212402340,31.7847194671630860,51,107,84,81,64,14894,2147782134,2147650486,2148340105,2147875218,2147602998,2147302838,2148356809,2147224914,2634,3,14,47738
1368657963,5808,188.1699981689453000,18.3260993957519530,34.8466987609863300,216.8766021728515600,222.2026062011718800,18.3394603729248050,31.6223297119140620,52,109,88,81,64,14896,2147775954,2147620352,2148269074,2147875163,2147598866,2147273956,2148315904,2147219218,2078,3,15,2725
1368658018,5809,182.8200073242187500,18.6168003082275400,34.8848991394043000,216.9093933105468800,213.2492980957031200,18.6128902435302730,31.4972095489501950,53,118,85,79,64,14892,2147813275,2147698194,2148383241,2147873490,2147612708,2147332772,2148371419,2147226029,1874,3,15,57547
1368658094,5807,176.1100006103515600,19.1996002197265620,34.9603004455566400,215.8168029785156200,193.8392028808593800,19.2057991027832030,31.2908000946044920,60,116,88,81,62,14884,2148192987,2148652818,2149865974,2147879707,2147766162,2147895332,2149095990,2147280640,3424,2,14,1469
1368658149,5809,171.9799957275390600,19.4398002624511720,34.9959983825683600,216.4306030273437500,186.4992980957031200,19.4300899505615230,31.1588401794433600,64,116,88,81,64,14879,2148326153,2148880585,2150153371,2147881243,2147824338,2148058084,2149279552,2147293376,2735,3,15,56830
1368658204,5810,167.8699951171875000,19.6945991516113280,35.0288009643554700,217.1956939697265600,177.2879028320312500,19.7116603851318360,30.9942398071289060,70,115,89,82,62,14869,2148574720,2149359524,2150842898,2147885458,2147924416,2148300928,2149558756,2147319387,3255,3,15,16906
1368658259,5809,163.9199981689453000,19.9619998931884770,35.0577011108398440,217.2639007568359400,169.5345001220703000,19.9487400054931640,30.8862895965576170,78,118,88,83,64,14862,2148778486,2149656484,2151192694,2147886985,2148012361,2148486994,2149749677,2147331574,3204,3,15,34345
1368658314,5808,159.9600067138672000,20.1023006439209000,35.0774002075195300,216.5296936035156200,163.5090026855468800,20.1330604553222660,30.8443508148193360,81,121,91,82,62,14859,2149143113,2150250066,2151968420,2147893833,2148159826,2148795675,2150087725,2147360566,3022,2,15,27468
1368658369,5808,156.0000000000000000,20.4027004241943360,35.1027984619140600,215.8410949707031200,154.5805969238281200,20.4062805175781250,30.7614192962646500,88,124,91,81,62,14849,2149521289,2150798482,2152629769,2147897289,2148318281,2149082843,2150384960,2147389430,2681,2,15,13222
1368658447,5804,151.0899963378906200,20.5967006683349600,35.1244010925293000,215.5399932861328000,148.6114044189453000,20.5890407562255860,30.6977500915527340,96,124,88,83,62,14839,2149910930,2151247104,2153062400,2147900836,2148466157,2149280786,2150539931,2147401682,2150,2,15,3571
1368658514,5810,147.5800018310547000,20.7938995361328120,35.1431999206543000,214.7899017333984400,141.0570983886718800,20.8204193115234380,30.6369705200195300,104,125,89,82,62,14830,2150753600,2152490889,2154595254,2147913024,2148797760,2149885888,2151189476,2147456237,1285,2,16,41583
1368658605,5812,143.5700073242187500,21.1702995300292970,35.1996994018554700,218.4969024658203000,129.8686981201172000,21.1633701324462900,30.2964591979980470,114,124,91,83,63,14814,2151412059,2153275638,2155382619,2147922249,2149065846,2150245750,2151499035,2147486464,595,2,15,62414
1368658708,5809,139.7299957275390600,21.3985996246337900,35.2380981445312500,223.8312072753906200,122.9223022460937500,21.3764400482177730,29.9354496002197270,125,126,89,83,61,14807,2152290413,2154395840,2156630546,2147936987,2149451858,2150741705,2151941010,2147526198,846,2,15,21649
1368658814,5811,135.9400024414062500,21.5007991790771500,35.2458992004394500,226.6838073730468800,119.1504974365234400,21.4922008514404300,29.7451801300048830,133,128,90,81,60,14793,2153617243,2156128493,2158504201,2147954340,2150050029,2151583350,2152729581,2147592649,3520,2,15,43902
1368658929,5809,131.5800018310547000,21.5916004180908200,35.2565994262695300,227.7285003662109400,116.2235031127929700,21.5820503234863280,29.6562194824218750,130,124,88,83,61,14794,2155403730,2158328356,2160797522,2147980425,2150846400,2152610898,2153650761,2147686464,2591,2,15,19769
1368659020,5816,127.7200012207031200,21.6198005676269530,35.2621002197265600,228.6604003906250000,115.1185989379882800,21.6159706115722660,29.5966396331787100,137,124,89,84,61,14787,2151524498,2152308589,2153122761,2147912365,2149264164,2149721600,2150514770,2147420662,1794,2,16,2261
1368659107,5808,123.4599990844726600,21.9640998840332030,35.3083992004394500,230.5491027832031200,104.5235977172851600,21.9414691925048830,29.3692798614501950,144,122,88,84,60,14764,2159120914,2162572416,2164715547,2148035154,2152513572,2154539849,2155214308,2147844498,1276,2,15,5882
1368659186,5811,119.4599990844726600,22.0076007843017580,35.3098983764648440,233.2852935791015600,102.5034027099609400,22.0035800933837900,29.2131996154785160,153,125,89,82,60,14757,2163538358,2168043337,2170293586,2148107465,2154482221,2157059986,2157448521,2148055396,1124,2,15,18851
1368659265,5807,115.6200027465820300,22.1210002899169920,35.3214988708496100,236.1125030517578000,98.2903289794921900,22.1331405639648440,29.0271797180175780,153,119,90,83,59,14761,2165456438,2170029897,2171627748,2148148132,2155400411,2157862848,2157902025,2148119049,766,2,15,42177
1368659356,5809,111.8000030517578100,22.2945003509521500,35.3414001464843750,241.2830963134765600,93.4331283569336000,22.2825908660888670,28.7283592224121100,94,117,90,84,58,14805,2170939876,2176429494,2177799058,2148263296,2158802944,2161949467,2161220864,2148426377,843,1,15,56081
1368659462,5810,107.5800018310546900,22.4377002716064450,35.3540000915527340,243.7649993896484400,88.5412063598632800,22.4331798553466800,28.5551490783691400,81,117,90,83,58,14817,2174697060,2180436160,2181152301,2148358427,2161929974,2165376466,2163628763,2148638628,3300,2,15,27426
1368659565,5808,104.0500030517578100,22.6278991699218750,35.3684005737304700,244.7628936767578000,82.4868392944336000,22.6196804046630860,28.4348392486572270,75,121,92,84,60,14807,2181234669,2188073270,2188472841,2148535067,2166659410,2170961014,2167919597,2149022272,1830,2,15,20620
1368659692,5812,99.6699981689453100,22.6825008392334000,35.3718986511230500,245.0307006835937500,80.5526428222656200,22.6792907714843750,28.3987007141113280,73,123,92,84,58,14799,2186092443,2192845677,2192477723,2148723693,2171010468,2175657718,2171134034,2149289517,909,2,16,31943
1368659771,5809,96.1399993896484400,22.7824993133544920,35.3741989135742200,245.6996002197265600,76.1768493652343800,22.8142108917236330,28.3144493103027340,69,125,93,84,58,14796,2174189878,2177264713,2175788160,2148432292,2165076544,2167559058,2163792914,2148627702,99,2,15,36855
1368659826,5809,93.0999984741211000,22.9402008056640620,35.3853988647460940,245.7799987792968800,72.5654296875000000,22.9256095886230470,28.2656497955322270,69,126,92,85,57,14786,2196353728,2203639424,2202078528,2149164891,2180074285,2185496676,2178032457,2149889718,2837,2,16,34230
1368659881,5812,90.1100006103515600,22.9780006408691400,35.3913002014160160,245.5997009277343800,70.9989471435546900,22.9739494323730470,28.2539100646972660,69,129,91,84,57,14780,2202370870,2210172123,2208224502,2149446217,2185121819,2191041462,2181987428,2150237750,2589,2,16,5260
1368659936,5809,87.1699981689453100,23.0130004882812500,35.3923988342285160,245.5267028808593800,69.8114013671875000,23.0105991363525400,28.2424201965332030,68,125,89,85,58,14777,2200756946,2207159222,2204405174,2149486080,2185589193,2191040594,2181556379,2150198747,2560,2,16,36359
1368659991,5809,84.3399963378906200,23.0727005004882800,35.3953018188476560,245.6499938964843800,67.9949188232421900,23.0666694641113280,28.2144203186035160,67,125,92,84,56,14771,2215481316,2222815158,2218906898,2150142409,2197585097,2204356388,2191187053,2151073974,2241,2,16,58260
1368660046,5807,81.5500030517578100,23.1000003814697270,35.3958015441894500,246.0390014648437500,66.9860687255859400,23.0978202819824220,28.1845893859863280,67,130,92,85,56,14767,2222825901,2230703707,2226754496,2150683437,2203084379,2210184749,2195174134,2151479936,1948,1,16,53809
1368660104,5810,78.7399978637695300,23.1168003082275400,35.3974990844726560,246.3273925781250000,66.1065368652343800,23.1249809265136720,28.1610908508300780,65,127,93,87,56,14770,2227925558,2234969920,2230180845,2151185746,2208995931,2215797686,2198770660,2151840676,1963,2,16,39359
1368660159,5809,76.1500015258789000,23.1791000366210940,35.3992004394531250,246.7046051025390600,64.4298171997070300,23.1767597198486330,28.1235809326171880,63,125,93,86,57,14771,2235203456,2242066368,2236810148,2151784768,2215529033,2222488457,2203088969,2152274770,1551,1,16,61795
1368660214,5809,73.7699966430664000,23.2166996002197270,35.4003982543945300,247.0885009765625000,63.0391807556152340,23.2197208404541000,28.0897102355957030,61,129,88,86,58,14765,2242043026,2248248722,2242136219,2152308900,2222900425,2229994587,2208109696,2152745673,867,1,16,9837
1368660269,5803,71.4599990844726600,23.2660007476806640,35.4001007080078100,247.6835937500000000,61.3205604553222660,23.2728195190429700,28.0424995422363280,62,126,104,86,55,14769,2249048786,2255056566,2248785353,2153242944,2230385142,2237124352,2212694701,2153244580,360,1,16,47748
1368660324,5809,69.3399963378906200,23.2954998016357420,35.4001998901367200,248.2248992919922000,60.4520492553710940,23.2996597290039060,28.0079994201660160,61,127,90,86,54,14762,2258090770,2264337618,2257635483,2154149339,2238703762,2245066532,2217685110,2153778185,3297,1,16,29448
1368660379,5811,67.3099975585937500,23.3208007812500000,35.4005012512207000,248.5158996582031200,59.6376304626464840,23.3248291015625000,27.9853897094726560,59,126,92,85,54,14762,2263291382,2268526153,2260769526,2154727259,2248116022,2254070473,2223277888,2154356269,2830,1,16,35598
1368660437,5807,65.2200012207031200,23.3619995117187500,35.4023017883300800,248.7993927001953000,58.3497695922851560,23.3646392822265620,27.9571094512939450,59,126,91,87,58,14760,2272029714,2276799936,2268244891,2155807533,2258698358,2264343817,2230059053,2155105590,2498,1,16,60353
1368660492,5808,63.3100013732910160,23.3985004425048830,35.4016990661621100,249.2066040039062500,57.1236686706543000,23.4025497436523440,27.9245395660400400,59,125,92,87,57,14758,2282221814,2286965824,2278353956,2157359990,2267942976,2272882770,2235013577,2155757312,2056,1,16,36745
1368660547,5806,61.4300003051757800,23.4909000396728500,35.3958015441894500,249.2095947265625000,54.0812797546386700,23.4966392517089840,27.8866596221923830,58,129,92,84,57,14760,2284916333,2288536448,2279483675,2158123739,2274031670,2277856091,2237666605,2156110784,1852,1,16,61561
1368660602,5809,59.6699981689453100,23.5485000610351560,35.4002990722656250,249.5001983642578000,52.3819313049316400,23.5492191314697270,27.8531494140625000,57,125,92,86,59,14763,2294270272,2297530002,2287448960,2159199286,2286201435,2289619657,2245247296,2156968338,1855,2,16,60248
1368660657,5805,58.0900001525878900,23.5505008697509770,35.4006004333496100,249.7295989990234400,52.0643692016601560,23.5590400695800780,27.8393192291259770,57,125,97,86,56,14755,2301809344,2304992557,2295226788,2160836141,2295223634,2297858925,2250765851,2157676544,1968,1,16,14277
1368660724,5810,56.1399993896484400,23.6326007843017580,35.3963012695312500,249.4550933837890600,49.7357902526855500,23.6311092376709000,27.8223400115966800,56,125,93,86,56,14754,2311027812,2313873353,2303806363,2162885760,2306225069,2307183012,2256234752,2158484818,2373,1,16,4622
1368660802,5802,53.6599998474121100,23.7098999023437500,35.3911018371582000,249.3800048828125000,46.8413200378418000,23.7207202911376950,27.7898406982421880,55,126,91,86,56,14755,2325932068,2328038829,2317662966,2165964845,2325757796,2324911762,2267381613,2159801572,1880,1,16,19892
1368660857,5807,51.4000015258789060,23.8309001922607420,35.3909988403320300,248.8961944580078000,43.2942199707031250,23.8305892944335940,27.7669792175292970,54,126,94,85,56,14758,2341666285,2342763401,2331403803,2168396918,2346580214,2344463113,2280106523,2161444589,1394,1,16,15369
1368660912,5809,49.2200012207031250,23.9354000091552730,35.3899993896484400,248.4440002441406200,39.5188407897949200,23.9475994110107420,27.7397499084472660,55,128,94,85,57,14754,2347503131,2347664146,2336417618,2171592960,2361147529,2356184868,2286993755,2162691913,1300,2,16,49751
1368660967,5810,47.3199996948242200,24.4876995086669920,35.3888015747070300,245.5063018798828000,23.4440193176269530,24.4465999603271500,27.6692695617675780,54,122,89,84,51,14748,2347118025,2346323437,2335148800,2172591369,2367247232,2360659401,2289018733,2162990006,603,0,17,26276
1368661022,5806,46.4300003051757800,24.5114002227783200,35.3944015502929700,244.7183990478515600,21.2670898437500000,24.5142803192138670,27.6768302917480470,54,121,88,84,55,14749,2352794020,2352554148,2341734299,2174680420,2369392612,2361731190,2289368822,2163299529,751,1,16,52269
1368661148,5809,44.1899986267089840,24.5933990478515620,35.3941993713378900,243.0173950195312500,18.3045692443847660,24.6064205169677730,27.7148895263671880,52,120,91,83,54,14761,2371201060,2372173357,2362243748,2180817161,2397732726,2386893531,2305875876,2165957421,17,2,16,7946
1368661215,5807,42.0499992370605500,24.6945991516113280,35.3932991027832000,241.8020019531250000,15.1790800094604500,24.7036895751953120,27.7300300598144530,53,117,90,83,54,14767,2381710784,2382350336,2372957348,2185747748,2412567661,2398493394,2312650596,2167334683,250,1,16,17231
1368661282,5807,40.0600013732910160,24.7096004486084000,35.3958015441894500,241.2017974853515600,14.5016603469848630,24.7247791290283200,27.7481594085693360,50,117,90,82,54,14763,2389899876,2391417088,2383782043,2190742866,2431638409,2414733092,2322409837,2168850121,3565,2,16,14107
1368661349,5807,38.0600013732910160,24.7325992584228500,35.3967018127441400,241.1257019042968800,13.4547500610351560,24.7573699951171880,27.7387504577636720,51,121,90,83,55,14760,2401000996,2402068013,2394005092,2196712237,2449028379,2428791835,2330472118,2170205193,1349,1,16,24531
1368661428,5809,35.0999984741210940,24.7879009246826170,35.3964996337890600,240.5874023437500000,12.0041198730468750,24.8025493621826170,27.7447395324707030,53,117,89,83,60,14756,2408771053,2407680082,2400136493,2204728795,2481709421,2455456192,2346070692,2174194258,788,1,16,33657
1368661483,5804,32.4300003051757800,24.8435001373291000,35.3947982788085940,240.2783966064453000,10.1241102218627930,24.8611106872558600,27.7354106903076170,51,117,89,84,54,14761,2426856804,2426408493,2419513252,2214901805,2509832201,2479101906,2361135094,2177463515,223,1,16,31891
1368661538,5808,30.0100002288818360,24.8600997924804700,35.3942985534668000,240.2709960937500000,9.6970796585083000,24.8744201660156250,27.7303791046142580,52,117,91,84,56,14762,2449381129,2452111872,2449037750,2234736237,2536383085,2500124306,2373633974,2180776347,3019,2,16,13333
1368661593,5805,27.5799999237060550,24.9500007629394530,35.3843994140625000,239.6699981689453000,6.3926959037780760,24.9774093627929700,27.7166194915771500,51,118,92,85,54,14758,2467372443,2470858624,2469636315,2247943305,2563310720,2522594998,2387348827,2185924306,3029,1,16,56916
1368661648,5808,25.7600002288818360,25.1536998748779300,35.3464012145996100,238.7277069091797000,0.6390631198883057,25.1568908691406250,27.6877708435058600,52,115,91,84,55,14759,2463487021,2464045952,2462683145,2252961097,2580550902,2536963309,2396450386,2187564937,1351,1,16,44063
